This is the latest recevied weather packets stored in our database for station/object DG6YGE-6. If no packets are shown the sender has not sent any weather packets the latest 10 day(s).
| Time | Temp. | Humidity | Pressure | Rain* | Wind** | Luminosity | Snow |
|---|---|---|---|---|---|---|---|
| 1777564151 | 17.78° C | 41% | 1027 hPa | 0 mm | - | 307 W/m² | - |
| 1777563551 | 17.78° C | 41% | 1027 hPa | 0 mm | - | 367 W/m² | - |
| 1777562951 | 17.78° C | 41% | 1027 hPa | 0 mm | - | 417 W/m² | - |
| 1777562351 | 17.78° C | 41% | 1027.2 hPa | 0 mm | - | 453 W/m² | - |
| 1777561751 | 17.78° C | 40% | 1027.2 hPa | 0 mm | - | 479 W/m² | - |
| 1777561152 | 17.78° C | 42% | 1027.2 hPa | 0 mm | - | 499 W/m² | - |
| 1777560551 | 17.78° C | 40% | 1027.3 hPa | 0 mm | - | 513 W/m² | - |
| 1777559951 | 17.78° C | 40% | 1027.5 hPa | 0 mm | - | 538 W/m² | - |
| 1777559351 | 17.78° C | 40% | 1027.5 hPa | 0 mm | - | 561 W/m² | - |
| 1777558751 | 17.78° C | 39% | 1027.7 hPa | 0 mm | - | 576 W/m² | - |
| 1777558151 | 17.78° C | 40% | 1028 hPa | 0 mm | - | 595 W/m² | - |
| 1777557551 | 17.78° C | 38% | 1027.8 hPa | 0 mm | - | 616 W/m² | - |
| 1777556951 | 17.78° C | 39% | 1027.9 hPa | 0 mm | - | 630 W/m² | - |
| 1777556351 | 17.78° C | 39% | 1028.1 hPa | 0 mm | - | 644 W/m² | - |
| 1777555751 | 17.78° C | 38% | 1028 hPa | 0 mm | - | 659 W/m² | - |
| 1777555151 | 17.22° C | 38% | 1028.2 hPa | 0 mm | - | 673 W/m² | - |
| 1777554552 | 17.22° C | 38% | 1028.4 hPa | 0 mm | - | 684 W/m² | - |
| 1777553951 | 17.22° C | 36% | 1028.5 hPa | 0 mm | - | 694 W/m² | - |
| 1777553351 | 16.67° C | 38% | 1028.6 hPa | 0 mm | - | 705 W/m² | - |
| 1777552751 | 16.11° C | 39% | 1028.7 hPa | 0 mm | - | 714 W/m² | - |
| 1777552151 | 16.11° C | 36% | 1028.9 hPa | 0 mm | - | 722 W/m² | - |
| 1777551551 | 16.67° C | 35% | 1028.9 hPa | 0 mm | - | 731 W/m² | - |
| 1777550951 | 16.11° C | 37% | 1028.8 hPa | 0 mm | - | 736 W/m² | - |
| 1777550351 | 16.67° C | 35% | 1029.1 hPa | 0 mm | - | 744 W/m² | - |
| 1777549751 | 16.67° C | 39% | 1029.2 hPa | 0 mm | - | 737 W/m² | - |
* Rain latest hour (hover to see other rain measurements)
** Current wind speed in m/s (hover to see current wind gust speed)